This is the latest recevied weather packets stored in our database for station/object KD8BMB. If no packets are shown the sender has not sent any weather packets the latest 10 day(s).
| Time | Temp. | Humidity | Pressure | Rain* | Wind** | Luminosity | Snow |
|---|---|---|---|---|---|---|---|
| 1777927186 | 24.44° C | 33% | 998.4 hPa | 0 mm | - | 342 W/m² | - |
| 1777926883 | 24.44° C | 34% | 998.5 hPa | 0 mm | - | 361 W/m² | - |
| 1777926579 | 25° C | 31% | 998.5 hPa | 0 mm | - | 434 W/m² | - |
| 1777926276 | 25° C | 31% | 998.6 hPa | 0 mm | - | 507 W/m² | - |
| 1777925972 | 25° C | 31% | 998.6 hPa | 0 mm | - | 528 W/m² | - |
| 1777925670 | 24.44° C | 31% | 998.5 hPa | 0 mm | - | 440 W/m² | - |
| 1777925367 | 25° C | 32% | 998.6 hPa | 0 mm | - | 543 W/m² | - |
| 1777925064 | 24.44° C | 31% | 998.8 hPa | 0 mm | - | 505 W/m² | - |
| 1777924761 | 24.44° C | 32% | 998.9 hPa | 0 mm | - | 635 W/m² | - |
| 1777924456 | 24.44° C | 30% | 998.7 hPa | 0 mm | - | 594 W/m² | - |
| 1777924153 | 24.44° C | 32% | 999 hPa | 0 mm | - | 566 W/m² | - |
| 1777923849 | 24.44° C | 31% | 999.1 hPa | 0 mm | - | 501 W/m² | - |
| 1777923545 | 23.89° C | 32% | 998.9 hPa | 0 mm | - | 475 W/m² | - |
| 1777923243 | 24.44° C | 31% | 999.6 hPa | 0 mm | - | 413 W/m² | - |
| 1777922941 | 24.44° C | 30% | 999 hPa | 0 mm | - | 570 W/m² | - |
| 1777922638 | 24.44° C | 31% | 999.1 hPa | 0 mm | - | 551 W/m² | - |
| 1777922337 | 24.44° C | 30% | 999.4 hPa | 0 mm | - | 533 W/m² | - |
| 1777922034 | 24.44° C | 31% | 999.2 hPa | 0 mm | - | 583 W/m² | - |
| 1777921729 | 24.44° C | 31% | 999.4 hPa | 0 mm | - | 528 W/m² | - |
| 1777921426 | 24.44° C | 31% | 999.4 hPa | 0 mm | - | 582 W/m² | - |
| 1777921122 | 24.44° C | 31% | 999.4 hPa | 0 mm | - | 599 W/m² | - |
| 1777920819 | 24.44° C | 32% | 999.5 hPa | 0 mm | - | 551 W/m² | - |
| 1777920515 | 25° C | 32% | 999.6 hPa | 0 mm | - | 576 W/m² | - |
| 1777920212 | 25° C | 32% | 999.5 hPa | 0 mm | - | 583 W/m² | - |
| 1777919907 | 24.44° C | 32% | 999.7 hPa | 0 mm | - | 565 W/m² | - |
* Rain latest hour (hover to see other rain measurements)
** Current wind speed in m/s (hover to see current wind gust speed)